Orangeburg, SC

10:23 PM EDT on October 23, 2017 (GMT -0400)
Orangeburg Municipal

Weather History for KOGB - October, 2012

Change the Weather History Date:

Wednesday, October 31, 2012

  Actual Average Record
Temperature  
Mean Temperature 55 °F 60 °F  
Max Temperature 67 °F 73 °F 86 °F (2004)
Min Temperature 42 °F 49 °F 32 °F (1963)
Degree Days  
Heating Degree Days 10 6  
Month to date heating degree days 77 87  
Since 1 July heating degree days 77 90  
Cooling Degree Days 0 1  
Month to date cooling degree days 106 93  
Year to date cooling degree days 2315 2087  
Growing Degree Days 4 (Base 50)    
Moisture  
Dew Point 24 °F    
Average Humidity 36    
Maximum Humidity 53    
Minimum Humidity 14    
Precipitation  
Precipitation 0.00 in 0.07 in 1.72 in (1985)
Month to date precipitation 1.70 3.39  
Year to date precipitation 36.73 40.49  
Sea Level Pressure  
Sea Level Pressure 29.78 in    
Wind  
Wind Speed 10 mph (West)    
Max Wind Speed 24 mph    
Max Gust Speed 33 mph    
Visibility 10 miles    
Events      
T = Trace of Precipitation, MM = Missing Value Source: NWS Daily Summary

Daily Weather History Graph

Daily Weather History Graph

Search for Another Location

Airport or City:

Trip Planner

Search our weather history database for the weather conditions in past years. The results will help you decide how hot, cold, wet, or windy it might be!

Date:

Astronomy

Oct. 31, 2012 Rise Set
Actual Time 7:41 AM EDT 6:31 PM EDT
Civil Twilight 7:16 AM EDT 6:57 PM EDT
Nautical Twilight 6:46 AM EDT 7:26 PM EDT
Astronomical Twilight 6:17 AM EDT 7:55 PM EDT
Moon 7:47 PM EDT (10/31) 9:16 AM EDT (10/31)
Length of Visible Light 11h 41m
Length of Day
10h 50m
Full, 97% of the Moon is Illuminated
Oct 31
Full
Nov 6
Last Quarter
Nov 13
New
Nov 20
First Quarter
Nov 28
Full

Hourly Weather History & Observations

Time (EDT) Temp. Windchill Dew Point Humidity Pressure Visibility Wind Dir Wind Speed Gust Speed Precip Events Conditions
12:53 AM 44.1 °F - 27.0 °F 51% 29.74 in 10.0 mi Calm Calm - N/A   Clear
1:53 AM 44.1 °F 42.5 °F 27.0 °F 51% 29.75 in 10.0 mi SSW 3.5 mph - N/A   Clear
2:53 AM 44.1 °F 42.5 °F 27.0 °F 51% 29.75 in 10.0 mi WSW 3.5 mph - N/A   Clear
3:53 AM 46.9 °F - 24.1 °F 41% 29.75 in 10.0 mi West 10.4 mph - N/A   Clear
4:53 AM 46.0 °F 41.4 °F 25.0 °F 44% 29.75 in 10.0 mi WSW 9.2 mph - N/A   Clear
5:53 AM 43.0 °F 38.2 °F 27.0 °F 53% 29.77 in 10.0 mi SW 8.1 mph - N/A   Clear
6:53 AM 42.1 °F 37.1 °F 27.0 °F 55% 29.78 in 10.0 mi WSW 8.1 mph - N/A   Clear
7:53 AM 43.0 °F 37.2 °F 27.0 °F 53% 29.78 in 10.0 mi WSW 10.4 mph - N/A   Clear
8:53 AM 46.9 °F - 27.0 °F 46% 29.80 in 10.0 mi West 10.4 mph 18.4 mph N/A   Clear
9:53 AM 51.1 °F - 27.0 °F 39% 29.81 in 10.0 mi West 15.0 mph 20.7 mph N/A   Clear
10:53 AM 54.0 °F - 28.0 °F 37% 29.81 in 10.0 mi WNW 15.0 mph 21.9 mph N/A   Clear
11:53 AM 57.9 °F - 28.9 °F 33% 29.80 in 10.0 mi West 13.8 mph 23.0 mph N/A   Clear
12:53 PM 60.1 °F - 30.0 °F 32% 29.79 in 10.0 mi West 12.7 mph 25.3 mph N/A   Clear
1:53 PM 64.0 °F - 28.0 °F 26% 29.76 in 10.0 mi WNW 13.8 mph 21.9 mph N/A   Clear
2:53 PM 66.0 °F - 21.9 °F 19% 29.74 in 10.0 mi West 18.4 mph 26.5 mph N/A   Clear
3:53 PM 66.9 °F - 19.0 °F 16% 29.73 in 10.0 mi West 15.0 mph 26.5 mph N/A   Clear
4:53 PM 66.9 °F - 16.0 °F 14% 29.74 in 10.0 mi West 18.4 mph 26.5 mph N/A   Clear
5:53 PM 64.0 °F - 16.0 °F 16% 29.75 in 10.0 mi West 13.8 mph 23.0 mph N/A   Clear
6:53 PM 61.0 °F - 17.1 °F 18% 29.78 in 10.0 mi West 9.2 mph - N/A   Clear
8:53 PM 52.0 °F - 21.0 °F 30% 29.81 in 10.0 mi WSW 4.6 mph - N/A   Clear
9:53 PM 50.0 °F - 23.0 °F 35% 29.82 in 10.0 mi WSW 3.5 mph - N/A   Clear
10:53 PM 50.0 °F - 24.1 °F 36% 29.83 in 10.0 mi WSW 6.9 mph - N/A   Clear
11:53 PM 46.9 °F - 25.0 °F 42% 29.84 in 10.0 mi Calm Calm - N/A   Clear